Time,TemperatureF,DewpointF,PressureIn,WindDirection,WindDirectionDegrees,WindSpeedMPH,WindSpeedGustMPH,Humidity,HourlyPrecipIn,Conditions,Clouds,dailyrainin,SoftwareType,DateUTC
2013-07-10 00:00:00,79.2,72.1,30.17,SSW,202,3.0,8.0,79,0.00,,SKC,0.00,VWS V13.00,2013-07-10 04:00:00,
2013-07-10 00:01:00,79.2,72.1,30.17,WSW,252,1.0,8.0,79,0.00,,SKC,0.04,VWS V13.00,2013-07-10 04:01:00,
2013-07-10 00:05:00,79.3,72.2,30.17,SSW,196,3.0,8.0,79,0.00,,SKC,0.00,VWS V13.00,2013-07-10 04:05:00,
2013-07-10 00:06:00,79.3,72.2,30.16,SSW,195,4.0,8.0,79,0.00,,SKC,0.00,VWS V13.00,2013-07-10 04:06:00,
2013-07-10 00:10:00,79.3,72.2,30.16,SSW,207,7.0,8.0,79,0.00,,SKC,0.00,VWS V13.00,2013-07-10 04:10:00,
2013-07-10 00:11:00,79.3,72.2,30.16,SW,227,5.0,7.0,79,0.00,,SKC,0.00,VWS V13.00,2013-07-10 04:11:00,
2013-07-10 00:15:00,79.2,72.1,30.16,SSW,212,5.0,8.0,79,0.00,,SKC,0.00,VWS V13.00,2013-07-10 04:15:00,
2013-07-10 00:16:00,79.3,72.2,30.16,SSW,204,3.0,8.0,79,0.00,,SKC,0.00,VWS V13.00,2013-07-10 04:16:00,
2013-07-10 00:20:00,79.2,72.1,30.16,SSW,207,4.0,8.0,79,0.00,,SKC,0.00,VWS V13.00,2013-07-10 04:20:00,
2013-07-10 00:21:00,79.2,72.1,30.16,SW,217,5.0,8.0,79,0.00,,SKC,0.00,VWS V13.00,2013-07-10 04:21:00,
2013-07-10 00:25:00,79.2,72.1,30.16,SSW,208,3.0,8.0,79,0.00,,SKC,0.00,VWS V13.00,2013-07-10 04:25:00,
2013-07-10 00:26:00,79.2,72.1,30.16,South,188,6.0,8.0,79,0.00,,SKC,0.00,VWS V13.00,2013-07-10 04:26:00,
2013-07-10 00:30:00,79.2,72.1,30.16,South,188,5.0,7.0,79,0.00,,SKC,0.00,VWS V13.00,2013-07-10 04:30:00,
2013-07-10 00:31:00,79.2,72.1,30.16,SSW,200,4.0,7.0,79,0.00,,SKC,0.00,VWS V13.00,2013-07-10 04:31:00,
2013-07-10 00:35:00,79.2,72.1,30.16,SW,229,7.0,9.0,79,0.00,,SKC,0.00,VWS V13.00,2013-07-10 04:35:00,
2013-07-10 00:36:00,79.2,72.1,30.16,SSW,200,4.0,9.0,79,0.00,,SKC,0.00,VWS V13.00,2013-07-10 04:36:00,
2013-07-10 00:40:00,79.1,72.4,30.16,SSW,201,2.0,8.0,80,0.00,,SKC,0.00,VWS V13.00,2013-07-10 04:40:00,
2013-07-10 00:41:00,79.2,72.5,30.16,South,170,4.0,8.0,80,0.00,,SKC,0.00,VWS V13.00,2013-07-10 04:41:00,
2013-07-10 00:45:00,79.1,72.0,30.16,WSW,241,5.0,9.0,79,0.00,,SKC,0.00,VWS V13.00,2013-07-10 04:45:00,
2013-07-10 00:46:00,79.1,72.0,30.16,South,170,6.0,9.0,79,0.00,,SKC,0.00,VWS V13.00,2013-07-10 04:46:00,
2013-07-10 00:50:00,79.1,72.0,30.15,SSW,204,5.0,8.0,79,0.00,,SKC,0.00,VWS V13.00,2013-07-10 04:50:00,
2013-07-10 00:51:00,79.1,72.0,30.15,SSW,193,5.0,8.0,79,0.00,,SKC,0.00,VWS V13.00,2013-07-10 04:51:00,
2013-07-10 00:55:00,79.1,72.4,30.15,South,181,6.0,8.0,80,0.00,,SKC,0.00,VWS V13.00,2013-07-10 04:55:00,
2013-07-10 00:56:00,79.1,72.4,30.15,SW,215,6.0,8.0,80,0.00,,SKC,0.00,VWS V13.00,2013-07-10 04:56:00,
2013-07-10 01:00:00,79.0,72.3,30.15,WSW,238,5.0,8.0,80,0.00,,SKC,0.00,VWS V13.00,2013-07-10 05:00:00,
2013-07-10 01:01:00,79.0,72.3,30.15,SW,215,5.0,8.0,80,0.00,,SKC,0.00,VWS V13.00,2013-07-10 05:01:00,
2013-07-10 01:05:00,79.0,72.3,30.15,SSW,204,5.0,8.0,80,0.00,,SKC,0.00,VWS V13.00,2013-07-10 05:05:00,
2013-07-10 01:06:00,79.1,72.4,30.15,SSW,203,2.0,8.0,80,0.00,,SKC,0.00,VWS V13.00,2013-07-10 05:06:00,
2013-07-10 01:10:00,79.0,72.3,30.15,South,190,5.0,9.0,80,0.00,,SKC,0.00,VWS V13.00,2013-07-10 05:10:00,
2013-07-10 01:11:00,79.0,72.3,30.15,SW,218,2.0,9.0,80,0.00,,SKC,0.00,VWS V13.00,2013-07-10 05:11:00,
2013-07-10 01:15:00,79.0,72.3,30.15,SW,221,5.0,8.0,80,0.00,,SKC,0.00,VWS V13.00,2013-07-10 05:15:00,
2013-07-10 01:16:00,79.0,72.3,30.15,SSW,202,5.0,8.0,80,0.00,,SKC,0.00,VWS V13.00,2013-07-10 05:16:00,
2013-07-10 01:20:00,79.0,72.3,30.15,SSW,213,4.0,8.0,80,0.00,,SKC,0.00,VWS V13.00,2013-07-10 05:20:00,
2013-07-10 01:21:00,79.0,72.3,30.15,SW,215,4.0,8.0,80,0.00,,SKC,0.00,VWS V13.00,2013-07-10 05:21:00,
2013-07-10 01:25:00,79.0,72.3,30.15,SSW,205,7.0,7.0,80,0.00,,SKC,0.00,VWS V13.00,2013-07-10 05:25:00,
2013-07-10 01:26:00,79.0,72.3,30.15,SSW,204,3.0,7.0,80,0.00,,SKC,0.00,VWS V13.00,2013-07-10 05:26:00,
2013-07-10 01:30:00,78.9,72.2,30.15,WSW,237,4.0,7.0,80,0.00,,SKC,0.00,VWS V13.00,2013-07-10 05:30:00,
2013-07-10 01:31:00,79.0,72.3,30.15,South,173,2.0,7.0,80,0.00,,SKC,0.00,VWS V13.00,2013-07-10 05:31:00,
2013-07-10 01:35:00,78.9,72.2,30.15,SW,234,5.0,7.0,80,0.00,,SKC,0.00,VWS V13.00,2013-07-10 05:35:00,
2013-07-10 01:36:00,78.9,72.2,30.15,SW,217,1.0,7.0,80,0.00,,SKC,0.00,VWS V13.00,2013-07-10 05:36:00,
2013-07-10 01:40:00,78.9,72.2,30.15,SW,227,2.0,6.0,80,0.00,,SKC,0.00,VWS V13.00,2013-07-10 05:40:00,
2013-07-10 01:41:00,78.9,72.2,30.15,SW,229,4.0,6.0,80,0.00,,SKC,0.00,VWS V13.00,2013-07-10 05:41:00,
2013-07-10 01:45:00,78.8,72.1,30.15,WSW,245,5.0,8.0,80,0.00,,SKC,0.00,VWS V13.00,2013-07-10 05:45:00,
2013-07-10 01:46:00,78.9,72.2,30.15,SSW,213,5.0,8.0,80,0.00,,SKC,0.00,VWS V13.00,2013-07-10 05:46:00,
2013-07-10 01:50:00,78.8,72.1,30.15,SSW,209,5.0,7.0,80,0.00,,SKC,0.00,VWS V13.00,2013-07-10 05:50:00,
2013-07-10 01:51:00,78.8,72.1,30.14,SSW,209,4.0,7.0,80,0.00,,SKC,0.00,VWS V13.00,2013-07-10 05:51:00,
2013-07-10 01:55:00,78.7,72.0,30.14,SW,226,0.0,8.0,80,0.00,,SKC,0.00,VWS V13.00,2013-07-10 05:55:00,
2013-07-10 01:56:00,78.8,72.1,30.14,SW,215,3.0,6.0,80,0.00,,SKC,0.00,VWS V13.00,2013-07-10 05:56:00,
2013-07-10 02:00:00,78.7,72.0,30.14,SW,219,3.0,6.0,80,0.00,,SKC,0.00,VWS V13.00,2013-07-10 06:00:00,
2013-07-10 02:01:00,78.7,72.0,30.14,SW,214,3.0,6.0,80,0.00,,SKC,0.00,VWS V13.00,2013-07-10 06:01:00,
2013-07-10 02:05:00,78.7,72.0,30.14,SW,225,5.0,8.0,80,0.00,,SKC,0.00,VWS V13.00,2013-07-10 06:05:00,
2013-07-10 02:06:00,78.7,72.0,30.14,SW,221,4.0,8.0,80,0.00,,SKC,0.00,VWS V13.00,2013-07-10 06:06:00,
2013-07-10 02:10:00,78.7,72.0,30.14,SW,225,4.0,6.0,80,0.00,,SKC,0.00,VWS V13.00,2013-07-10 06:10:00,
2013-07-10 02:11:00,78.7,72.0,30.14,SSW,209,4.0,6.0,80,0.00,,SKC,0.00,VWS V13.00,2013-07-10 06:11:00,
2013-07-10 02:15:00,78.7,72.0,30.13,SSW,200,3.0,6.0,80,0.00,,SKC,0.00,VWS V13.00,2013-07-10 06:15:00,
2013-07-10 02:16:00,78.7,72.0,30.14,SW,225,3.0,6.0,80,0.00,,SKC,0.00,VWS V13.00,2013-07-10 06:16:00,
2013-07-10 02:20:00,78.7,72.0,30.13,SSW,206,4.0,6.0,80,0.00,,SKC,0.00,VWS V13.00,2013-07-10 06:20:00,
2013-07-10 02:21:00,78.7,72.0,30.13,SW,224,3.0,6.0,80,0.00,,SKC,0.00,VWS V13.00,2013-07-10 06:21:00,
2013-07-10 02:25:00,78.7,72.0,30.13,SSW,203,0.0,7.0,80,0.00,,SKC,0.00,VWS V13.00,2013-07-10 06:25:00,
2013-07-10 02:26:00,78.7,72.0,30.13,SSW,202,2.0,7.0,80,0.00,,SKC,0.00,VWS V13.00,2013-07-10 06:26:00,
2013-07-10 02:30:00,78.6,71.9,30.13,SW,231,2.0,7.0,80,0.00,,SKC,0.00,VWS V13.00,2013-07-10 06:30:00,
2013-07-10 02:31:00,78.7,72.0,30.13,SW,225,3.0,7.0,80,0.00,,SKC,0.00,VWS V13.00,2013-07-10 06:31:00,
2013-07-10 02:35:00,78.5,71.8,30.13,SSW,209,2.0,7.0,80,0.00,,SKC,0.00,VWS V13.00,2013-07-10 06:35:00,
2013-07-10 02:36:00,78.5,71.8,30.13,SW,224,4.0,7.0,80,0.00,,SKC,0.00,VWS V13.00,2013-07-10 06:36:00,
2013-07-10 02:40:00,78.5,71.8,30.13,SW,221,4.0,7.0,80,0.00,,SKC,0.00,VWS V13.00,2013-07-10 06:40:00,
2013-07-10 02:41:00,78.5,71.8,30.13,South,186,5.0,7.0,80,0.00,,SKC,0.00,VWS V13.00,2013-07-10 06:41:00,
2013-07-10 02:45:00,78.5,71.8,30.13,SW,222,5.0,7.0,80,0.00,,SKC,0.00,VWS V13.00,2013-07-10 06:45:00,
2013-07-10 02:46:00,78.5,71.8,30.13,SSW,211,2.0,7.0,80,0.00,,SKC,0.00,VWS V13.00,2013-07-10 06:46:00,
2013-07-10 02:50:00,78.5,71.8,30.13,SSW,208,5.0,8.0,80,0.00,,SKC,0.00,VWS V13.00,2013-07-10 06:50:00,
2013-07-10 02:51:00,78.6,71.9,30.13,SW,231,4.0,8.0,80,0.00,,SKC,0.00,VWS V13.00,2013-07-10 06:51:00,
2013-07-10 02:55:00,78.5,71.8,30.13,SSW,202,6.0,9.0,80,0.00,,SKC,0.00,VWS V13.00,2013-07-10 06:55:00,
2013-07-10 02:56:00,78.6,71.9,30.13,SW,221,4.0,7.0,80,0.00,,SKC,0.00,VWS V13.00,2013-07-10 06:56:00,
2013-07-10 03:00:00,78.5,71.8,30.13,SW,217,4.0,8.0,80,0.00,,SKC,0.00,VWS V13.00,2013-07-10 07:00:00,
2013-07-10 03:01:00,78.5,71.8,30.13,SW,215,5.0,8.0,80,0.00,,SKC,0.00,VWS V13.00,2013-07-10 07:01:00,
2013-07-10 03:05:00,78.4,71.7,30.13,SW,219,3.0,9.0,80,0.00,,SKC,0.00,VWS V13.00,2013-07-10 07:05:00,
2013-07-10 03:06:00,78.4,71.7,30.12,SSW,193,5.0,9.0,80,0.00,,SKC,0.00,VWS V13.00,2013-07-10 07:06:00,
2013-07-10 03:10:00,78.4,71.7,30.12,SW,224,5.0,7.0,80,0.00,,SKC,0.00,VWS V13.00,2013-07-10 07:10:00,
2013-07-10 03:11:00,78.4,71.7,30.12,SW,223,1.0,7.0,80,0.00,,SKC,0.00,VWS V13.00,2013-07-10 07:11:00,
2013-07-10 03:15:00,78.4,71.7,30.12,SW,235,5.0,8.0,80,0.00,,SKC,0.00,VWS V13.00,2013-07-10 07:15:00,
2013-07-10 03:20:00,78.3,71.6,30.12,SW,223,2.0,6.0,80,0.00,,SKC,0.00,VWS V13.00,2013-07-10 07:20:00,
2013-07-10 03:25:00,78.3,71.6,30.12,SSW,213,4.0,7.0,80,0.00,,SKC,0.00,VWS V13.00,2013-07-10 07:25:00,
2013-07-10 03:30:00,78.3,71.6,30.12,SW,223,3.0,6.0,80,0.00,,SKC,0.00,VWS V13.00,2013-07-10 07:30:00,
2013-07-10 03:35:00,78.2,71.5,30.12,SSW,212,4.0,7.0,80,0.00,,SKC,0.00,VWS V13.00,2013-07-10 07:35:00,
2013-07-10 03:40:00,78.2,71.5,30.12,SW,228,0.0,5.0,80,0.00,,SKC,0.00,VWS V13.00,2013-07-10 07:40:00,
2013-07-10 03:45:00,78.2,71.5,30.12,SW,225,1.0,5.0,80,0.00,,SKC,0.00,VWS V13.00,2013-07-10 07:45:00,
2013-07-10 03:46:00,78.2,71.5,30.12,SSW,205,2.0,5.0,80,0.00,,SKC,0.00,VWS V13.00,2013-07-10 07:46:00,
2013-07-10 03:50:00,78.2,71.5,30.12,SSW,211,2.0,6.0,80,0.00,,SKC,0.00,VWS V13.00,2013-07-10 07:50:00,
2013-07-10 03:51:00,78.1,71.4,30.12,SW,232,4.0,6.0,80,0.00,,SKC,0.00,VWS V13.00,2013-07-10 07:51:00,
2013-07-10 03:56:00,78.1,71.4,30.12,SW,221,2.0,5.0,80,0.00,,SKC,0.00,VWS V13.00,2013-07-10 07:56:00,
2013-07-10 04:01:00,78.0,71.7,30.12,South,180,3.0,4.0,81,0.00,,SKC,0.00,VWS V13.00,2013-07-10 08:01:00,
2013-07-10 04:05:00,78.0,71.7,30.12,South,182,4.0,6.0,81,0.00,,SKC,0.00,VWS V13.00,2013-07-10 08:05:00,
2013-07-10 04:10:00,78.0,71.7,30.12,SW,223,5.0,6.0,81,0.00,,SKC,0.00,VWS V13.00,2013-07-10 08:10:00,
2013-07-10 04:15:00,78.0,71.7,30.12,SSW,208,3.0,6.0,81,0.00,,SKC,0.00,VWS V13.00,2013-07-10 08:15:00,
2013-07-10 04:20:00,78.0,71.7,30.12,SW,215,4.0,6.0,81,0.00,,SKC,0.00,VWS V13.00,2013-07-10 08:20:00,
2013-07-10 04:25:00,78.0,71.7,30.11,WSW,240,2.0,5.0,81,0.00,,SKC,0.00,VWS V13.00,2013-07-10 08:25:00,
2013-07-10 04:30:00,78.0,71.7,30.12,SW,221,3.0,5.0,81,0.00,,SKC,0.00,VWS V13.00,2013-07-10 08:30:00,
2013-07-10 04:35:00,78.0,71.7,30.12,SW,223,1.0,6.0,81,0.00,,SKC,0.00,VWS V13.00,2013-07-10 08:35:00,
2013-07-10 04:40:00,78.1,71.8,30.12,SSW,196,2.0,5.0,81,0.00,,SKC,0.00,VWS V13.00,2013-07-10 08:40:00,
2013-07-10 04:45:00,78.1,71.8,30.12,SW,231,3.0,6.0,81,0.00,,SKC,0.00,VWS V13.00,2013-07-10 08:45:00,
2013-07-10 04:50:00,78.1,71.8,30.12,SSW,203,4.0,7.0,81,0.00,,SKC,0.00,VWS V13.00,2013-07-10 08:50:00,
2013-07-10 04:55:00,78.1,71.8,30.11,SSW,199,4.0,6.0,81,0.00,,SKC,0.00,VWS V13.00,2013-07-10 08:55:00,
2013-07-10 05:00:00,78.1,71.8,30.12,SW,215,3.0,5.0,81,0.00,,SKC,0.00,VWS V13.00,2013-07-10 09:00:00,
2013-07-10 05:05:00,78.1,71.8,30.12,SW,219,3.0,5.0,81,0.00,,SKC,0.00,VWS V13.00,2013-07-10 09:05:00,
2013-07-10 05:10:00,78.1,71.8,30.12,WSW,238,0.0,5.0,81,0.00,,SKC,0.00,VWS V13.00,2013-07-10 09:10:00,
2013-07-10 05:15:00,78.1,71.8,30.12,SW,223,3.0,5.0,81,0.00,,SKC,0.00,VWS V13.00,2013-07-10 09:15:00,
2013-07-10 05:20:00,78.1,71.8,30.12,SW,223,0.0,2.0,81,0.00,,SKC,0.00,VWS V13.00,2013-07-10 09:20:00,
2013-07-10 05:25:00,78.0,71.7,30.12,SW,223,2.0,3.0,81,0.00,,SKC,0.00,VWS V13.00,2013-07-10 09:25:00,
2013-07-10 05:30:00,77.8,71.5,30.12,SW,223,1.0,4.0,81,0.00,,SKC,0.00,VWS V13.00,2013-07-10 09:30:00,
2013-07-10 05:35:00,77.8,71.5,30.12,SW,225,2.0,5.0,81,0.00,,SKC,0.00,VWS V13.00,2013-07-10 09:35:00,
2013-07-10 05:40:00,77.8,71.5,30.12,SW,217,3.0,5.0,81,0.00,,SKC,0.00,VWS V13.00,2013-07-10 09:40:00,
2013-07-10 05:45:00,77.8,71.5,30.12,SW,229,4.0,5.0,81,0.00,,SKC,0.00,VWS V13.00,2013-07-10 09:45:00,
2013-07-10 05:50:00,77.9,71.6,30.12,SSW,211,2.0,5.0,81,0.00,,SKC,0.00,VWS V13.00,2013-07-10 09:50:00,
2013-07-10 05:55:00,77.9,71.6,30.12,SW,223,3.0,7.0,81,0.00,,SKC,0.00,VWS V13.00,2013-07-10 09:55:00,
2013-07-10 06:00:00,77.9,71.6,30.12,SSW,211,2.0,4.0,81,0.00,,SKC,0.00,VWS V13.00,2013-07-10 10:00:00,
2013-07-10 06:06:00,77.8,71.5,30.12,SW,220,1.0,6.0,81,0.00,,SKC,0.00,VWS V13.00,2013-07-10 10:06:00,
2013-07-10 06:11:00,77.8,71.5,30.12,SW,227,4.0,5.0,81,0.00,,SKC,0.00,VWS V13.00,2013-07-10 10:11:00,
2013-07-10 06:16:00,77.9,71.6,30.12,SW,227,4.0,5.0,81,0.00,,SKC,0.00,VWS V13.00,2013-07-10 10:16:00,
2013-07-10 06:21:00,77.9,71.6,30.12,SW,214,2.0,5.0,81,0.00,,SKC,0.00,VWS V13.00,2013-07-10 10:21:00,
2013-07-10 06:26:00,77.9,71.6,30.12,SW,216,3.0,4.0,81,0.00,,SKC,0.00,VWS V13.00,2013-07-10 10:26:00,
2013-07-10 06:31:00,77.9,71.6,30.12,WSW,237,3.0,6.0,81,0.00,,SKC,0.00,VWS V13.00,2013-07-10 10:31:00,
2013-07-10 06:36:00,77.9,71.6,30.12,WSW,241,1.0,5.0,81,0.00,,SKC,0.00,VWS V13.00,2013-07-10 10:36:00,
2013-07-10 06:41:00,77.9,71.6,30.12,SW,225,4.0,6.0,81,0.00,,SKC,0.00,VWS V13.00,2013-07-10 10:41:00,
2013-07-10 06:45:00,78.0,71.7,30.12,SW,232,3.0,5.0,81,0.00,,SKC,0.00,VWS V13.00,2013-07-10 10:45:00,
2013-07-10 06:50:00,78.0,71.7,30.12,SW,221,2.0,5.0,81,0.00,,SKC,0.00,VWS V13.00,2013-07-10 10:50:00,
2013-07-10 06:55:00,78.0,71.7,30.12,SW,234,1.0,3.0,81,0.00,,SKC,0.00,VWS V13.00,2013-07-10 10:55:00,
2013-07-10 07:00:00,78.0,71.7,30.12,SW,229,3.0,4.0,81,0.00,,SKC,0.00,VWS V13.00,2013-07-10 11:00:00,
2013-07-10 07:05:00,78.0,71.7,30.12,SW,228,0.0,3.0,81,0.00,,SKC,0.00,VWS V13.00,2013-07-10 11:05:00,
2013-07-10 07:10:00,78.2,72.3,30.12,SSW,209,2.0,3.0,82,0.00,,SKC,0.00,VWS V13.00,2013-07-10 11:10:00,
2013-07-10 07:15:00,78.4,72.4,30.12,SSW,210,0.0,4.0,82,0.00,,SKC,0.00,VWS V13.00,2013-07-10 11:15:00,
2013-07-10 07:20:00,78.5,72.6,30.12,SW,216,2.0,5.0,82,0.00,,SKC,0.00,VWS V13.00,2013-07-10 11:20:00,
2013-07-10 07:25:00,78.7,72.8,30.11,SW,219,1.0,5.0,82,0.00,,SKC,0.00,VWS V13.00,2013-07-10 11:25:00,
2013-07-10 07:30:00,78.7,72.8,30.12,SW,232,5.0,5.0,82,0.00,,SKC,0.00,VWS V13.00,2013-07-10 11:30:00,
2013-07-10 07:35:00,78.9,72.9,30.12,SW,225,1.0,5.0,82,0.00,,SKC,0.00,VWS V13.00,2013-07-10 11:35:00,
2013-07-10 07:40:00,79.0,73.0,30.12,SW,215,4.0,6.0,82,0.00,,SKC,0.00,VWS V13.00,2013-07-10 11:40:00,
2013-07-10 07:45:00,79.1,73.1,30.12,SW,233,3.0,5.0,82,0.00,,SKC,0.00,VWS V13.00,2013-07-10 11:45:00,
2013-07-10 07:50:00,79.1,73.1,30.12,WSW,244,0.0,4.0,82,0.00,,SKC,0.00,VWS V13.00,2013-07-10 11:50:00,
2013-07-10 07:55:00,79.2,73.2,30.12,SW,231,0.0,5.0,82,0.00,,SKC,0.00,VWS V13.00,2013-07-10 11:55:00,
2013-07-10 08:00:00,79.4,73.4,30.13,SW,234,3.0,5.0,82,0.00,,SKC,0.00,VWS V13.00,2013-07-10 12:00:00,
2013-07-10 08:05:00,79.4,73.4,30.13,WSW,250,3.0,7.0,82,0.00,,SKC,0.00,VWS V13.00,2013-07-10 12:05:00,
2013-07-10 08:10:00,79.4,73.4,30.13,SSW,209,3.0,5.0,82,0.00,,SKC,0.00,VWS V13.00,2013-07-10 12:10:00,
2013-07-10 08:15:00,79.5,73.5,30.13,SW,230,3.0,7.0,82,0.00,,SKC,0.00,VWS V13.00,2013-07-10 12:15:00,
2013-07-10 08:20:00,79.5,73.5,30.13,SW,227,3.0,7.0,82,0.00,,SKC,0.00,VWS V13.00,2013-07-10 12:20:00,
2013-07-10 08:25:00,79.6,73.6,30.13,SW,219,2.0,7.0,82,0.00,,SKC,0.00,VWS V13.00,2013-07-10 12:25:00,
2013-07-10 08:30:00,79.7,73.4,30.14,SW,223,4.0,8.0,81,0.00,,SKC,0.00,VWS V13.00,2013-07-10 12:30:00,
2013-07-10 08:35:00,79.9,73.6,30.14,SW,227,2.0,6.0,81,0.00,,SKC,0.00,VWS V13.00,2013-07-10 12:35:00,
2013-07-10 08:40:00,80.2,74.2,30.14,SW,226,2.0,6.0,82,0.00,,SKC,0.00,VWS V13.00,2013-07-10 12:40:00,
2013-07-10 08:45:00,80.3,73.9,30.14,SW,220,4.0,8.0,81,0.00,,SKC,0.00,VWS V13.00,2013-07-10 12:45:00,
2013-07-10 08:50:00,80.5,74.1,30.14,SSW,202,1.0,6.0,81,0.00,,SKC,0.00,VWS V13.00,2013-07-10 12:50:00,
2013-07-10 08:55:00,80.8,74.4,30.14,SSW,196,0.0,5.0,81,0.00,,SKC,0.00,VWS V13.00,2013-07-10 12:55:00,
2013-07-10 09:00:00,81.2,74.8,30.14,South,177,1.0,5.0,81,0.00,,SKC,0.00,VWS V13.00,2013-07-10 13:00:00,
2013-07-10 09:05:00,81.4,75.0,30.14,SW,235,2.0,4.0,81,0.00,,SKC,0.00,VWS V13.00,2013-07-10 13:05:00,
2013-07-10 09:10:00,81.6,75.2,30.14,South,189,2.0,7.0,81,0.00,,SKC,0.00,VWS V13.00,2013-07-10 13:10:00,
2013-07-10 09:15:00,81.7,75.3,30.14,WSW,237,3.0,6.0,81,0.00,,SKC,0.00,VWS V13.00,2013-07-10 13:15:00,
2013-07-10 09:20:00,81.8,75.4,30.14,South,187,4.0,7.0,81,0.00,,SKC,0.00,VWS V13.00,2013-07-10 13:20:00,
2013-07-10 09:25:00,82.0,75.6,30.14,South,178,2.0,7.0,81,0.00,,SKC,0.00,VWS V13.00,2013-07-10 13:25:00,
2013-07-10 09:30:00,82.1,75.7,30.14,SSW,211,3.0,6.0,81,0.00,,SKC,0.00,VWS V13.00,2013-07-10 13:30:00,
2013-07-10 09:35:00,82.2,75.8,30.13,SSW,211,1.0,7.0,81,0.00,,SKC,0.00,VWS V13.00,2013-07-10 13:35:00,
2013-07-10 09:40:00,82.4,76.0,30.13,SSW,201,5.0,7.0,81,0.00,,SKC,0.00,VWS V13.00,2013-07-10 13:40:00,
2013-07-10 09:45:00,82.3,75.9,30.13,WSW,238,6.0,12.0,81,0.00,,SKC,0.00,VWS V13.00,2013-07-10 13:45:00,
2013-07-10 09:50:00,82.2,75.8,30.13,SW,229,9.0,10.0,81,0.00,,SKC,0.00,VWS V13.00,2013-07-10 13:50:00,
2013-07-10 09:55:00,82.3,75.9,30.13,SSW,211,6.0,11.0,81,0.00,,SKC,0.00,VWS V13.00,2013-07-10 13:55:00,
2013-07-10 10:00:00,82.4,76.0,30.13,SSW,213,8.0,11.0,81,0.00,,SKC,0.00,VWS V13.00,2013-07-10 14:00:00,
2013-07-10 10:05:00,82.4,76.0,30.13,SW,227,7.0,11.0,81,0.00,,SKC,0.00,VWS V13.00,2013-07-10 14:05:00,
2013-07-10 10:10:00,82.4,75.6,30.13,WSW,247,5.0,10.0,80,0.00,,SKC,0.00,VWS V13.00,2013-07-10 14:10:00,
2013-07-10 10:15:00,82.5,75.7,30.13,SW,232,4.0,7.0,80,0.00,,SKC,0.00,VWS V13.00,2013-07-10 14:15:00,
2013-07-10 10:20:00,82.5,75.7,30.13,WSW,239,3.0,8.0,80,0.00,,SKC,0.00,VWS V13.00,2013-07-10 14:20:00,
2013-07-10 10:25:00,82.5,75.7,30.13,WSW,257,4.0,11.0,80,0.00,,SKC,0.00,VWS V13.00,2013-07-10 14:25:00,
2013-07-10 10:30:00,82.7,75.9,30.13,SW,221,8.0,11.0,80,0.00,,SKC,0.00,VWS V13.00,2013-07-10 14:30:00,
2013-07-10 10:35:00,82.7,75.9,30.13,SW,232,6.0,11.0,80,0.00,,SKC,0.00,VWS V13.00,2013-07-10 14:35:00,
2013-07-10 10:40:00,82.7,75.9,30.13,SSW,212,6.0,8.0,80,0.00,,SKC,0.00,VWS V13.00,2013-07-10 14:40:00,
2013-07-10 10:45:00,82.7,75.9,30.14,SW,225,2.0,7.0,80,0.00,,SKC,0.00,VWS V13.00,2013-07-10 14:45:00,
2013-07-10 10:50:00,82.9,76.1,30.14,WSW,238,2.0,9.0,80,0.00,,SKC,0.00,VWS V13.00,2013-07-10 14:50:00,
2013-07-10 10:55:00,83.1,76.3,30.14,SSW,213,11.0,11.0,80,0.00,,SKC,0.00,VWS V13.00,2013-07-10 14:55:00,
2013-07-10 11:00:00,83.3,76.5,30.14,South,191,4.0,10.0,80,0.00,,SKC,0.00,VWS V13.00,2013-07-10 15:00:00,
2013-07-10 11:05:00,83.6,76.8,30.14,SSW,209,9.0,9.0,80,0.00,,SKC,0.00,VWS V13.00,2013-07-10 15:05:00,
2013-07-10 11:10:00,83.8,77.0,30.14,SSW,205,4.0,10.0,80,0.00,,SKC,0.00,VWS V13.00,2013-07-10 15:10:00,
2013-07-10 11:15:00,84.0,77.2,30.14,South,179,4.0,9.0,80,0.00,,SKC,0.00,VWS V13.00,2013-07-10 15:15:00,
2013-07-10 11:20:00,84.2,77.4,30.13,SSW,192,3.0,8.0,80,0.00,,SKC,0.00,VWS V13.00,2013-07-10 15:20:00,
2013-07-10 11:25:00,84.7,77.8,30.14,SW,232,4.0,11.0,80,0.00,,SKC,0.00,VWS V13.00,2013-07-10 15:25:00,
2013-07-10 11:30:00,84.8,77.6,30.14,SSW,201,6.0,10.0,79,0.00,,SKC,0.00,VWS V13.00,2013-07-10 15:30:00,
2013-07-10 11:35:00,84.7,77.5,30.13,South,180,8.0,11.0,79,0.00,,SKC,0.00,VWS V13.00,2013-07-10 15:35:00,
2013-07-10 11:40:00,84.5,77.3,30.13,SW,225,6.0,10.0,79,0.00,,SKC,0.00,VWS V13.00,2013-07-10 15:40:00,
2013-07-10 11:45:00,84.3,77.1,30.13,WSW,242,7.0,12.0,79,0.00,,SKC,0.00,VWS V13.00,2013-07-10 15:45:00,
2013-07-10 11:50:00,84.3,77.1,30.13,SW,216,7.0,11.0,79,0.00,,SKC,0.00,VWS V13.00,2013-07-10 15:50:00,
2013-07-10 11:55:00,84.2,77.0,30.13,South,182,8.0,15.0,79,0.00,,SKC,0.00,VWS V13.00,2013-07-10 15:55:00,
2013-07-10 12:00:00,84.1,76.9,30.13,SSW,197,4.0,12.0,79,0.00,,SKC,0.00,VWS V13.00,2013-07-10 16:00:00,
2013-07-10 12:05:00,84.1,76.9,30.12,SSW,209,7.0,11.0,79,0.00,,SKC,0.00,VWS V13.00,2013-07-10 16:05:00,
2013-07-10 12:10:00,84.1,76.9,30.12,SSW,211,8.0,12.0,79,0.00,,SKC,0.00,VWS V13.00,2013-07-10 16:10:00,
2013-07-10 12:15:00,84.3,77.1,30.12,SW,215,4.0,12.0,79,0.00,,SKC,0.00,VWS V13.00,2013-07-10 16:15:00,
2013-07-10 12:20:00,84.4,76.8,30.12,SW,217,6.0,11.0,78,0.00,,SKC,0.00,VWS V13.00,2013-07-10 16:20:00,
2013-07-10 12:25:00,84.6,77.0,30.12,SSW,196,5.0,12.0,78,0.00,,SKC,0.00,VWS V13.00,2013-07-10 16:25:00,
2013-07-10 12:30:00,84.7,77.1,30.12,East,86,1.0,9.0,78,0.00,,SKC,0.00,VWS V13.00,2013-07-10 16:30:00,
2013-07-10 12:35:00,85.0,77.4,30.11,SSW,205,8.0,12.0,78,0.00,,SKC,0.00,VWS V13.00,2013-07-10 16:35:00,
2013-07-10 12:40:00,85.1,77.5,30.11,SSE,165,9.0,13.0,78,0.00,,SKC,0.00,VWS V13.00,2013-07-10 16:40:00,
2013-07-10 12:45:00,85.2,77.6,30.11,South,177,8.0,10.0,78,0.00,,SKC,0.00,VWS V13.00,2013-07-10 16:45:00,
2013-07-10 12:50:00,85.4,77.8,30.11,SSW,192,9.0,11.0,78,0.00,,SKC,0.00,VWS V13.00,2013-07-10 16:50:00,
2013-07-10 12:55:00,85.4,77.8,30.11,SSE,167,7.0,12.0,78,0.00,,SKC,0.00,VWS V13.00,2013-07-10 16:55:00,
2013-07-10 13:00:00,85.5,77.9,30.11,SW,216,9.0,13.0,78,0.00,,SKC,0.00,VWS V13.00,2013-07-10 17:00:00,
2013-07-10 13:05:00,85.6,78.0,30.11,SW,223,6.0,13.0,78,0.00,,SKC,0.00,VWS V13.00,2013-07-10 17:05:00,
2013-07-10 13:10:00,85.7,78.1,30.11,South,188,1.0,12.0,78,0.00,,SKC,0.00,VWS V13.00,2013-07-10 17:10:00,
2013-07-10 13:15:00,85.7,77.7,30.11,SSW,194,3.0,11.0,77,0.00,,SKC,0.00,VWS V13.00,2013-07-10 17:15:00,
2013-07-10 13:20:00,85.8,77.8,30.11,SE,139,1.0,11.0,77,0.00,,SKC,0.00,VWS V13.00,2013-07-10 17:20:00,
2013-07-10 13:25:00,86.0,77.9,30.11,SSE,162,0.0,10.0,77,0.00,,SKC,0.00,VWS V13.00,2013-07-10 17:25:00,
2013-07-10 13:30:00,86.0,77.9,30.10,South,172,8.0,8.0,77,0.00,,SKC,0.00,VWS V13.00,2013-07-10 17:30:00,
2013-07-10 13:35:00,86.0,77.9,30.10,SW,231,4.0,6.0,77,0.00,,SKC,0.00,VWS V13.00,2013-07-10 17:35:00,
2013-07-10 13:40:00,85.9,77.9,30.10,SW,229,4.0,12.0,77,0.00,,SKC,0.00,VWS V13.00,2013-07-10 17:40:00,
2013-07-10 13:45:00,85.7,77.7,30.10,SW,214,2.0,8.0,77,0.00,,SKC,0.00,VWS V13.00,2013-07-10 17:45:00,
2013-07-10 13:50:00,85.7,77.7,30.10,SW,215,3.0,8.0,77,0.00,,SKC,0.00,VWS V13.00,2013-07-10 17:50:00,
2013-07-10 13:55:00,85.7,77.7,30.10,South,177,6.0,12.0,77,0.00,,SKC,0.00,VWS V13.00,2013-07-10 17:55:00,
2013-07-10 14:00:00,85.8,77.8,30.10,South,178,9.0,12.0,77,0.00,,SKC,0.00,VWS V13.00,2013-07-10 18:00:00,
2013-07-10 14:05:00,85.9,77.9,30.10,SW,215,7.0,11.0,77,0.00,,SKC,0.00,VWS V13.00,2013-07-10 18:05:00,
2013-07-10 14:10:00,86.0,77.9,30.10,South,176,4.0,10.0,77,0.00,,SKC,0.00,VWS V13.00,2013-07-10 18:10:00,
2013-07-10 14:15:00,86.1,78.1,30.10,SW,215,8.0,9.0,77,0.00,,SKC,0.00,VWS V13.00,2013-07-10 18:15:00,
2013-07-10 14:20:00,86.3,77.8,30.09,SSE,164,5.0,12.0,76,0.00,,SKC,0.00,VWS V13.00,2013-07-10 18:20:00,
2013-07-10 14:25:00,86.1,77.7,30.09,SSW,198,2.0,13.0,76,0.00,,SKC,0.00,VWS V13.00,2013-07-10 18:25:00,
2013-07-10 14:30:00,85.9,77.5,30.09,SSE,157,1.0,13.0,76,0.00,,SKC,0.00,VWS V13.00,2013-07-10 18:30:00,
2013-07-10 14:35:00,86.0,77.6,30.09,SSW,197,5.0,13.0,76,0.00,,SKC,0.00,VWS V13.00,2013-07-10 18:35:00,
2013-07-10 14:40:00,86.0,77.6,30.09,South,176,6.0,13.0,76,0.00,,SKC,0.00,VWS V13.00,2013-07-10 18:40:00,
2013-07-10 14:45:00,86.0,77.6,30.09,SSW,194,6.0,17.0,76,0.00,,SKC,0.00,VWS V13.00,2013-07-10 18:45:00,
2013-07-10 14:50:00,85.9,77.5,30.09,South,176,7.0,13.0,76,0.00,,SKC,0.00,VWS V13.00,2013-07-10 18:50:00,
2013-07-10 14:55:00,86.0,77.6,30.09,South,178,10.0,15.0,76,0.00,,SKC,0.00,VWS V13.00,2013-07-10 18:55:00,
2013-07-10 15:00:00,86.2,77.8,30.08,SSW,205,10.0,15.0,76,0.00,,SKC,0.00,VWS V13.00,2013-07-10 19:00:00,
2013-07-10 15:05:00,86.1,77.7,30.08,SSW,194,8.0,14.0,76,0.00,,SKC,0.00,VWS V13.00,2013-07-10 19:05:00,
2013-07-10 15:10:00,86.2,77.8,30.08,South,179,7.0,13.0,76,0.00,,SKC,0.00,VWS V13.00,2013-07-10 19:10:00,
2013-07-10 15:15:00,86.2,77.8,30.08,South,182,8.0,11.0,76,0.00,,SKC,0.00,VWS V13.00,2013-07-10 19:15:00,
2013-07-10 15:20:00,86.2,77.8,30.08,South,185,7.0,12.0,76,0.00,,SKC,0.00,VWS V13.00,2013-07-10 19:20:00,
2013-07-10 15:25:00,86.1,77.7,30.07,SSW,198,6.0,11.0,76,0.00,,SKC,0.00,VWS V13.00,2013-07-10 19:25:00,
2013-07-10 15:30:00,86.2,77.8,30.07,South,189,2.0,12.0,76,0.00,,SKC,0.00,VWS V13.00,2013-07-10 19:30:00,
2013-07-10 15:35:00,86.2,77.8,30.07,South,187,10.0,13.0,76,0.00,,SKC,0.00,VWS V13.00,2013-07-10 19:35:00,
2013-07-10 15:40:00,86.1,77.2,30.07,South,174,7.0,13.0,75,0.00,,SKC,0.00,VWS V13.00,2013-07-10 19:40:00,
2013-07-10 15:45:00,85.7,76.9,30.07,SSW,196,3.0,12.0,75,0.00,,SKC,0.00,VWS V13.00,2013-07-10 19:45:00,
2013-07-10 15:50:00,85.7,76.9,30.07,South,180,7.0,10.0,75,0.00,,SKC,0.00,VWS V13.00,2013-07-10 19:50:00,
2013-07-10 15:55:00,85.7,76.9,30.07,South,186,2.0,9.0,75,0.00,,SKC,0.00,VWS V13.00,2013-07-10 19:55:00,
2013-07-10 16:00:00,85.8,77.4,30.07,SSW,199,8.0,9.0,76,0.00,,SKC,0.00,VWS V13.00,2013-07-10 20:00:00,
2013-07-10 16:05:00,85.9,77.1,30.07,SSW,210,8.0,11.0,75,0.00,,SKC,0.00,VWS V13.00,2013-07-10 20:05:00,
2013-07-10 16:10:00,85.8,77.4,30.06,South,177,6.0,8.0,76,0.00,,SKC,0.00,VWS V13.00,2013-07-10 20:10:00,
2013-07-10 16:15:00,85.7,76.9,30.06,SSW,208,6.0,11.0,75,0.00,,SKC,0.00,VWS V13.00,2013-07-10 20:15:00,
2013-07-10 16:20:00,85.8,77.4,30.06,South,188,11.0,13.0,76,0.00,,SKC,0.00,VWS V13.00,2013-07-10 20:20:00,
2013-07-10 16:25:00,85.9,77.5,30.05,WSW,254,2.0,13.0,76,0.00,,SKC,0.00,VWS V13.00,2013-07-10 20:25:00,
2013-07-10 16:30:00,85.9,77.5,30.05,WSW,244,1.0,13.0,76,0.00,,SKC,0.00,VWS V13.00,2013-07-10 20:30:00,
2013-07-10 16:35:00,85.9,77.5,30.05,SSE,147,0.0,11.0,76,0.00,,SKC,0.00,VWS V13.00,2013-07-10 20:35:00,
2013-07-10 16:40:00,85.9,77.5,30.05,SE,144,5.0,12.0,76,0.00,,SKC,0.00,VWS V13.00,2013-07-10 20:40:00,
2013-07-10 16:45:00,85.8,77.4,30.05,South,188,11.0,15.0,76,0.00,,SKC,0.00,VWS V13.00,2013-07-10 20:45:00,
2013-07-10 16:50:00,85.8,77.4,30.05,South,178,7.0,12.0,76,0.00,,SKC,0.00,VWS V13.00,2013-07-10 20:50:00,
2013-07-10 16:55:00,85.7,76.9,30.05,SE,136,10.0,15.0,75,0.00,,SKC,0.00,VWS V13.00,2013-07-10 20:55:00,
2013-07-10 17:00:00,85.4,76.6,30.05,SSW,192,8.0,15.0,75,0.00,,SKC,0.00,VWS V13.00,2013-07-10 21:00:00,
2013-07-10 17:05:00,85.2,76.8,30.05,South,183,10.0,13.0,76,0.00,,SKC,0.00,VWS V13.00,2013-07-10 21:05:00,
2013-07-10 17:10:00,85.1,76.7,30.04,South,180,7.0,13.0,76,0.00,,SKC,0.00,VWS V13.00,2013-07-10 21:10:00,
2013-07-10 17:15:00,84.8,76.4,30.05,SSE,155,6.0,15.0,76,0.00,,SKC,0.00,VWS V13.00,2013-07-10 21:15:00,
2013-07-10 17:20:00,84.5,76.1,30.05,SSW,199,10.0,15.0,76,0.00,,SKC,0.00,VWS V13.00,2013-07-10 21:20:00,
2013-07-10 17:25:00,84.4,76.0,30.04,SSW,202,12.0,14.0,76,0.00,,SKC,0.00,VWS V13.00,2013-07-10 21:25:00,
2013-07-10 17:30:00,84.2,75.8,30.05,South,177,16.0,16.0,76,0.00,,SKC,0.00,VWS V13.00,2013-07-10 21:30:00,
2013-07-10 17:35:00,84.1,75.7,30.04,SSW,211,10.0,15.0,76,0.00,,SKC,0.00,VWS V13.00,2013-07-10 21:35:00,
2013-07-10 17:40:00,84.0,75.6,30.04,West,276,7.0,16.0,76,0.00,,SKC,0.00,VWS V13.00,2013-07-10 21:40:00,
2013-07-10 17:45:00,83.9,75.5,30.04,WSW,254,5.0,14.0,76,0.00,,SKC,0.00,VWS V13.00,2013-07-10 21:45:00,
2013-07-10 17:50:00,83.9,75.5,30.04,South,171,8.0,14.0,76,0.00,,SKC,0.00,VWS V13.00,2013-07-10 21:50:00,
2013-07-10 17:55:00,83.9,75.5,30.04,South,186,11.0,14.0,76,0.00,,SKC,0.00,VWS V13.00,2013-07-10 21:55:00,
2013-07-10 18:00:00,83.9,75.5,30.04,South,177,6.0,16.0,76,0.00,,SKC,0.00,VWS V13.00,2013-07-10 22:00:00,
2013-07-10 18:05:00,83.8,75.4,30.04,SSW,208,7.0,14.0,76,0.00,,SKC,0.00,VWS V13.00,2013-07-10 22:05:00,
2013-07-10 18:10:00,83.6,75.2,30.04,SW,231,10.0,13.0,76,0.00,,SKC,0.00,VWS V13.00,2013-07-10 22:10:00,
2013-07-10 18:15:00,83.4,75.1,30.04,SSW,196,11.0,15.0,76,0.00,,SKC,0.00,VWS V13.00,2013-07-10 22:15:00,
2013-07-10 18:20:00,83.2,74.8,30.03,SSW,204,5.0,16.0,76,0.00,,SKC,0.00,VWS V13.00,2013-07-10 22:20:00,
2013-07-10 18:25:00,83.0,74.7,30.03,SSE,167,4.0,16.0,76,0.00,,SKC,0.00,VWS V13.00,2013-07-10 22:25:00,
2013-07-10 18:30:00,82.9,74.6,30.03,South,191,8.0,13.0,76,0.00,,SKC,0.00,VWS V13.00,2013-07-10 22:30:00,
2013-07-10 18:35:00,82.8,74.5,30.03,South,174,11.0,14.0,76,0.00,,SKC,0.00,VWS V13.00,2013-07-10 22:35:00,
2013-07-10 18:40:00,82.6,74.3,30.04,SSW,192,5.0,15.0,76,0.00,,SKC,0.00,VWS V13.00,2013-07-10 22:40:00,
2013-07-10 18:45:00,82.6,74.3,30.04,SW,228,8.0,15.0,76,0.00,,SKC,0.00,VWS V13.00,2013-07-10 22:45:00,
2013-07-10 18:50:00,82.5,74.6,30.04,SW,225,9.0,14.0,77,0.00,,SKC,0.00,VWS V13.00,2013-07-10 22:50:00,
2013-07-10 18:55:00,82.4,74.5,30.04,South,184,4.0,18.0,77,0.00,,SKC,0.00,VWS V13.00,2013-07-10 22:55:00,
2013-07-10 19:00:00,82.3,74.4,30.04,SSW,205,7.0,11.0,77,0.00,,SKC,0.00,VWS V13.00,2013-07-10 23:00:00,
2013-07-10 19:05:00,82.3,74.4,30.04,South,190,5.0,13.0,77,0.00,,SKC,0.00,VWS V13.00,2013-07-10 23:05:00,
2013-07-10 19:10:00,82.2,74.3,30.03,SW,231,5.0,12.0,77,0.00,,SKC,0.00,VWS V13.00,2013-07-10 23:10:00,
2013-07-10 19:15:00,82.0,74.1,30.03,SSW,206,4.0,15.0,77,0.00,,SKC,0.00,VWS V13.00,2013-07-10 23:15:00,
2013-07-10 19:20:00,81.9,74.0,30.03,SW,236,2.0,11.0,77,0.00,,SKC,0.00,VWS V13.00,2013-07-10 23:20:00,
2013-07-10 19:25:00,81.8,73.9,30.04,SSW,206,8.0,12.0,77,0.00,,SKC,0.00,VWS V13.00,2013-07-10 23:25:00,
2013-07-10 19:30:00,81.7,73.8,30.04,South,181,6.0,10.0,77,0.00,,SKC,0.00,VWS V13.00,2013-07-10 23:30:00,
2013-07-10 19:35:00,81.5,73.6,30.04,WSW,243,6.0,13.0,77,0.00,,SKC,0.00,VWS V13.00,2013-07-10 23:35:00,
2013-07-10 19:40:00,81.4,73.5,30.04,SSW,205,2.0,11.0,77,0.00,,SKC,0.00,VWS V13.00,2013-07-10 23:40:00,
2013-07-10 19:45:00,81.3,73.4,30.04,South,185,8.0,13.0,77,0.00,,SKC,0.00,VWS V13.00,2013-07-10 23:45:00,
2013-07-10 19:50:00,81.2,73.3,30.04,SW,232,9.0,12.0,77,0.00,,SKC,0.00,VWS V13.00,2013-07-10 23:50:00,
2013-07-10 19:55:00,81.0,73.1,30.03,SSW,213,13.0,16.0,77,0.00,,SKC,0.00,VWS V13.00,2013-07-10 23:55:00,
2013-07-10 20:00:00,80.8,72.9,30.04,SW,219,10.0,14.0,77,0.00,,SKC,0.00,VWS V13.00,2013-07-11 00:00:00,
2013-07-10 20:05:00,80.7,72.8,30.04,SW,214,8.0,12.0,77,0.00,,SKC,0.00,VWS V13.00,2013-07-11 00:05:00,
2013-07-10 20:10:00,80.7,72.8,30.04,SSW,194,5.0,11.0,77,0.00,,SKC,0.00,VWS V13.00,2013-07-11 00:10:00,
2013-07-10 20:15:00,80.6,73.1,30.03,SW,217,8.0,12.0,78,0.00,,SKC,0.00,VWS V13.00,2013-07-11 00:15:00,
2013-07-10 20:20:00,80.7,73.2,30.04,South,182,7.0,12.0,78,0.00,,SKC,0.00,VWS V13.00,2013-07-11 00:20:00,
2013-07-10 20:25:00,80.7,73.2,30.04,SSW,210,7.0,8.0,78,0.00,,SKC,0.00,VWS V13.00,2013-07-11 00:25:00,
2013-07-10 20:30:00,80.8,73.3,30.04,SW,234,5.0,10.0,78,0.00,,SKC,0.00,VWS V13.00,2013-07-11 00:30:00,
2013-07-10 20:35:00,80.8,73.3,30.04,SSW,207,7.0,9.0,78,0.00,,SKC,0.00,VWS V13.00,2013-07-11 00:35:00,
2013-07-10 20:40:00,80.7,73.2,30.04,SSW,205,5.0,10.0,78,0.00,,SKC,0.00,VWS V13.00,2013-07-11 00:40:00,
2013-07-10 20:45:00,80.6,73.1,30.04,SW,228,5.0,10.0,78,0.00,,SKC,0.00,VWS V13.00,2013-07-11 00:45:00,
2013-07-10 20:50:00,80.6,73.1,30.04,SW,219,3.0,11.0,78,0.00,,SKC,0.00,VWS V13.00,2013-07-11 00:50:00,
2013-07-10 20:55:00,80.4,72.9,30.04,WSW,248,4.0,10.0,78,0.00,,SKC,0.00,VWS V13.00,2013-07-11 00:55:00,
2013-07-10 21:00:00,80.2,72.7,30.04,SSE,163,6.0,10.0,78,0.00,,SKC,0.00,VWS V13.00,2013-07-11 01:00:00,
2013-07-10 21:05:00,80.0,72.5,30.04,SW,214,5.0,11.0,78,0.00,,SKC,0.00,VWS V13.00,2013-07-11 01:05:00,
2013-07-10 21:10:00,80.0,72.5,30.04,SSE,147,6.0,9.0,78,0.00,,SKC,0.00,VWS V13.00,2013-07-11 01:10:00,
2013-07-10 21:15:00,80.0,72.5,30.04,SW,223,3.0,10.0,78,0.00,,SKC,0.00,VWS V13.00,2013-07-11 01:15:00,
2013-07-10 21:20:00,80.0,72.5,30.04,SW,215,5.0,10.0,78,0.00,,SKC,0.00,VWS V13.00,2013-07-11 01:20:00,
2013-07-10 21:25:00,80.0,72.9,30.04,WSW,248,4.0,10.0,79,0.00,,SKC,0.00,VWS V13.00,2013-07-11 01:25:00,
2013-07-10 21:30:00,80.1,73.0,30.05,South,190,7.0,10.0,79,0.00,,SKC,0.00,VWS V13.00,2013-07-11 01:30:00,
2013-07-10 21:35:00,80.0,72.9,30.05,SE,143,6.0,10.0,79,0.00,,SKC,0.00,VWS V13.00,2013-07-11 01:35:00,
2013-07-10 21:40:00,79.9,72.8,30.05,SSW,200,11.0,14.0,79,0.00,,SKC,0.00,VWS V13.00,2013-07-11 01:40:00,
2013-07-10 21:45:00,79.7,72.6,30.05,SSW,208,6.0,13.0,79,0.00,,SKC,0.00,VWS V13.00,2013-07-11 01:45:00,
2013-07-10 21:50:00,79.6,72.5,30.05,SSW,202,6.0,11.0,79,0.00,,SKC,0.00,VWS V13.00,2013-07-11 01:50:00,
2013-07-10 21:55:00,79.5,72.4,30.05,SW,217,5.0,14.0,79,0.00,,SKC,0.00,VWS V13.00,2013-07-11 01:55:00,
2013-07-10 22:00:00,79.5,72.4,30.05,South,183,5.0,10.0,79,0.00,,SKC,0.00,VWS V13.00,2013-07-11 02:00:00,
2013-07-10 22:05:00,79.5,72.4,30.04,SSW,202,4.0,10.0,79,0.00,,SKC,0.00,VWS V13.00,2013-07-11 02:05:00,
2013-07-10 22:10:00,79.6,72.5,30.05,SSW,198,9.0,13.0,79,0.00,,SKC,0.00,VWS V13.00,2013-07-11 02:10:00,
2013-07-10 22:15:00,79.8,72.7,30.05,SSW,200,7.0,14.0,79,0.00,,SKC,0.00,VWS V13.00,2013-07-11 02:15:00,
2013-07-10 22:20:00,79.7,72.6,30.05,SW,227,5.0,12.0,79,0.00,,SKC,0.00,VWS V13.00,2013-07-11 02:20:00,
2013-07-10 22:25:00,79.6,72.5,30.05,South,190,13.0,14.0,79,0.00,,SKC,0.00,VWS V13.00,2013-07-11 02:25:00,
2013-07-10 22:30:00,79.6,72.5,30.05,SSW,207,3.0,15.0,79,0.00,,SKC,0.00,VWS V13.00,2013-07-11 02:30:00,
2013-07-10 22:35:00,79.6,72.5,30.05,South,175,6.0,13.0,79,0.00,,SKC,0.00,VWS V13.00,2013-07-11 02:35:00,
2013-07-10 22:40:00,79.5,72.4,30.06,South,184,6.0,12.0,79,0.00,,SKC,0.00,VWS V13.00,2013-07-11 02:40:00,
2013-07-10 22:45:00,79.4,72.3,30.06,SSW,195,8.0,10.0,79,0.00,,SKC,0.00,VWS V13.00,2013-07-11 02:45:00,
2013-07-10 22:50:00,79.4,72.3,30.06,SSW,209,6.0,12.0,79,0.00,,SKC,0.00,VWS V13.00,2013-07-11 02:50:00,
2013-07-10 22:55:00,79.4,72.3,30.06,South,179,6.0,9.0,79,0.00,,SKC,0.00,VWS V13.00,2013-07-11 02:55:00,
2013-07-10 23:00:00,79.5,72.4,30.06,SSW,200,11.0,12.0,79,0.00,,SKC,0.00,VWS V13.00,2013-07-11 03:00:00,
2013-07-10 23:05:00,79.6,72.5,30.06,SSW,210,11.0,11.0,79,0.00,,SKC,0.00,VWS V13.00,2013-07-11 03:05:00,
2013-07-10 23:10:00,79.4,72.3,30.06,South,188,8.0,12.0,79,0.00,,SKC,0.00,VWS V13.00,2013-07-11 03:10:00,
2013-07-10 23:15:00,79.4,72.3,30.06,South,176,8.0,15.0,79,0.00,,SKC,0.00,VWS V13.00,2013-07-11 03:15:00,
2013-07-10 23:20:00,79.4,72.3,30.05,SSW,211,3.0,11.0,79,0.00,,SKC,0.00,VWS V13.00,2013-07-11 03:20:00,
2013-07-10 23:25:00,79.4,72.3,30.05,SSE,165,7.0,14.0,79,0.00,,SKC,0.00,VWS V13.00,2013-07-11 03:25:00,
2013-07-10 23:30:00,79.4,72.3,30.05,South,175,7.0,12.0,79,0.00,,SKC,0.00,VWS V13.00,2013-07-11 03:30:00,
2013-07-10 23:35:00,79.3,72.2,30.05,SSE,147,5.0,14.0,79,0.00,,SKC,0.00,VWS V13.00,2013-07-11 03:35:00,
2013-07-10 23:40:00,79.2,72.1,30.05,SSW,211,3.0,12.0,79,0.00,,SKC,0.00,VWS V13.00,2013-07-11 03:40:00,
2013-07-10 23:45:00,79.2,72.1,30.05,South,181,11.0,15.0,79,0.00,,SKC,0.00,VWS V13.00,2013-07-11 03:45:00,
2013-07-10 23:50:00,79.1,72.0,30.04,SSW,211,6.0,14.0,79,0.00,,SKC,0.00,VWS V13.00,2013-07-11 03:50:00,
2013-07-10 23:55:00,79.2,72.1,30.04,SSW,203,3.0,15.0,79,0.00,,SKC,0.00,VWS V13.00,2013-07-11 03:55:00,